DSOK1: Kansas River, Desoto, KS

                                
SHEF ID:       DSOK1     KANSAS RIVER NEAR DESOTO 1N
STATION TYPE:  

                STAGE  STAGE(2)  RIV-FLOW  BAT-LOAD
                   ft        ft       cfs      volt
              Ccp-Rev   Ccp-Rev   Ccp-Rev   Ccp-Rev
(US/Central)
08/17 00:00      4.31      4.30      1318     12.34
08/17 01:00      4.31      4.31      1318     12.31
08/17 02:00      4.30      4.29      1308     12.30
08/17 03:00      4.29      4.28      1298     12.28
08/17 04:00      4.28      4.28      1288     12.27
08/17 05:00      4.27      4.28      1278     12.25
08/17 06:00      4.26      4.25      1269     12.22
08/17 07:00      4.25      4.25      1259     12.19
08/17 08:00      4.24      4.23      1249     12.21
08/17 09:00      4.23      4.23      1240     12.77
08/17 10:00      4.23      4.23      1240     12.98
08/17 11:00      4.22      4.17      1230     12.95
08/17 12:00      4.22      4.22      1230     12.95
08/17 13:00      4.22      4.23      1230     12.93
08/17 14:00      4.21      4.22      1220     12.93
08/17 15:00      4.20      4.22      1211     12.93
08/17 16:00      4.20      4.21      1211     12.92
08/17 17:00      4.20      4.20      1211     12.89
08/17 18:00      4.19      4.20      1201     12.90
08/17 19:00      4.19      4.19      1201     13.11
08/17 20:00      4.18      4.18      1192     12.41
08/17 21:00      4.17      4.18      1182     12.33
08/17 22:00      4.16      4.16      1173     12.32
08/17 23:00      4.15      4.15      1163     12.33

                            
Data processed at Fri 18Aug2023 04:53 GMT

Parsing this webpage?

Checkout our new Data API! CWMSDataAPI (CDA)

Timeseries IDs (TSIDs)

TSIDs used from left to right in the data table
DESO.Stage.Inst.1Hour.0.Ccp-Rev
DESO.Stage-Alt.Inst.1Hour.0.Ccp-Rev
DESO.Flow.Inst.1Hour.0.Ccp-Rev
DESO.Volt-Battery Load.Inst.1Hour.0.Ccp-Rev

                            

All information presented herein is the property of the government of the United States of America and may be revised or deleted at any time without prior notice. Dissemination of this information without the expressed written consent of the Public Affairs Office, Tulsa District U.S. Army Corps of Engineers is strictly prohibited. These data are gathered electronically and, as presented, have NOT undergone any form of quality control. These data are NOT guaranteed to be valid or correct.